Regional Weather Roundup
Issued by NWS

Home | Current Version | Previous Version | Graphics & Text | Print | Product List | Glossary On
Versions: 1 2 3 4 5 6 7 8 9 10 11 12 13 14 15 16 17 18 19 20 21 22 23 24 25 26 27 28 29 30 31 32 33 34 35 36 37 38 39 40 41 42 43 44 45 46 47 48 49 50
000
ASUS43 KIND 281259
RWRIN

WEATHER ROUNDUP FOR INDIANA
NATIONAL WEATHER SERVICE INDIANAPOLIS IN
900 AM EDT TUE MAR 28 2017

NOTE: "FAIR" INDICATES FEW OR NO CLOUDS BELOW 12,000 FEET WITH NO
SIGNIFICANT WEATHER AND/OR OBSTRUCTIONS TO VISIBILITY.

* - STATION DOES NOT REPORT WEATHER SUCH AS PRECIPITATION OR FOG.

+ - STATION NOT QUALITY CONTROLLED BY THE NATIONAL WEATHER SERVICE.
    USE DATA WITH CAUTION...ESPECIALLY DEWPOINT AND RELATIVE
    HUMIDITY OBSERVATIONS.

INZ001>003-010>013-019-020-281400-
NORTHWEST INDIANA

CITY           SKY/WX    TMP DP  RH WIND       PRES   REMARKS
GARY /AIRPORT/ CLOUDY    39  37  93 N16       30.08R
KNOX *+        CLOUDY    39  28  65 N8        30.05R
MONTICELLO +   CLOUDY    40  38  94 N9        30.03R

$$

LMZ046-743>745-281400-
SOUTHERN LAKE MICHIGAN

STATION/POSITION TIME  TEMP    WIND        PRES    WAVE
                       AIR SEA DIR/SP/G            HT
                 (UTC) (F)     (DEG/KT/KT) (MB)    (FT)
BURNS HARBOR     1240   38     350/ 10/ 13 1018.6R
MICHIGAN CITY    1230   38     350/ 12/ 14   N/A

$$

INZ004-005-014>016-021>024-281400-
NORTH CENTRAL INDIANA

CITY           SKY/WX    TMP DP  RH WIND       PRES   REMARKS
ELKHART        CLOUDY    43  39  87 CALM      30.03R
GOSHEN         CLOUDY    44  39  82 N10       30.02R
PERU/GRISSOM   PTSUNNY   46  46 100 N10       29.99R
SOUTH BEND     CLOUDY    40  39  97 N7        30.04R

$$

INZ006>009-017-018-025>027-281400-
NORTHEAST INDIANA

CITY           SKY/WX    TMP DP  RH WIND       PRES   REMARKS
ANGOLA *+      CLOUDY    45  34  65 NE8       30.00R
FORT WAYNE     CLOUDY    48  44  86 N13       30.00R
KENDALLVILLE + CLOUDY    46  42  88 N9        30.00R

$$

INZ028-029-035-036-043>045-051>053-281400-
WEST CENTRAL INDIANA

CITY           SKY/WX    TMP DP  RH WIND       PRES   REMARKS
CRAWFORDSVL +  CLOUDY    43  43 100 N7        30.02R
GREENCASTLE +  CLOUDY    46  45  93 N7        30.01R
LAFAYETTE      CLOUDY    40  39  97 N10       30.04R
TERRE HAUTE    PTSUNNY   49  44  83 NW9       30.01R

$$

INZ030>032-037>040-046>048-054>057-064-065-281400-
CENTRAL INDIANA

CITY           SKY/WX    TMP DP  RH WIND       PRES   REMARKS
ANDERSON       CLOUDY    50  48  93 N9        29.98  FOG
COLUMBUS       CLOUDY    54  54 100 N14       29.97R
INDIANAPOLIS   CLOUDY    50  48  93 N10       29.99R FOG
-EAGLE CREEK   CLOUDY    49  46  90 N9        29.99R
KOKOMO +       MOSUNNY   46  44  93 N9        30.02R
SHELBYVILLE    CLOUDY    54  50  86 N12       29.96R FOG

$$

INZ033-034-041-042-049-050-058-059-281400-
EAST CENTRAL INDIANA

CITY           SKY/WX    TMP DP  RH WIND       PRES   REMARKS
MUNCIE         CLOUDY    52  49  89 N10       29.97R FOG
RICHMOND +     CLOUDY    50  50 100 N14       29.93S FOG

$$

INZ060-061-067>069-081>083-085>088-281400-
SOUTHWEST INDIANA

CITY           SKY/WX    TMP DP  RH WIND       PRES   REMARKS
EVANSVILLE     CLOUDY    55  52  89 N10       30.00R FOG
HUNTINGBURG *+ CLOUDY    56  54  93 N7        29.98R

$$

INZ062-063-066-070>080-084-089>092-281400-
SOUTH CENTRAL AND SOUTHEAST INDIANA

CITY           SKY/WX    TMP DP  RH WIND       PRES   REMARKS
BLOOMINGTON    CLOUDY    51  48  89 N10       29.98R FOG
MADISON *+     CLOUDY    54  52  94 NW7       29.97R
SEYMOUR +      CLOUDY    57  54  88 N9        29.96R

$$




USA.gov is the U.S. government's official web portal to all federal, state and local government web resources and services.